Theta_e
338 346 350 352 351 351 351 351 352 352 353 353 353 352 352 351 351 351 351 352 353 351 350 350 349 349 344 343 344 343 342 341 341 340 340 339 343 343 343 344 345 341 347
342 348 348 350 351 352 352 352 352 352 353 354 353 351 350 349 349 349 351 351 352 350 350 349 348 347 346 344 343 342 342 341 342 341 341 339 340 342 343 345 347 342 345
344 347 348 348 351 351 351 351 352 352 352 351 350 350 349 349 349 349 350 351 350 350 350 349 348 348 346 346 345 345 344 343 342 341 340 333 334 342 343 346 346 346 345
345 346 347 346 350 351 351 351 351 351 352 352 351 350 349 349 348 349 348 349 349 349 349 348 347 345 346 345 344 343 342 340 339 337 332 336 338 343 343 343 342 343 343
344 345 345 346 349 350 350 350 350 350 350 351 350 349 347 346 345 345 345 346 345 344 344 344 342 341 341 340 340 339 337 336 335 330 326 327 334 342 344 343 342 342 342
343 344 342 346 348 349 349 349 349 349 349 348 347 346 345 343 343 343 344 344 341 339 338 339 338 337 337 335 334 333 331 328 326 323 327 328 334 342 341 341 341 342 341
341 343 343 344 347 348 348 348 347 347 347 347 346 345 343 342 340 339 339 338 337 336 336 336 335 332 330 326 324 322 320 319 309 307 321 332 334 341 342 340 338 337 337
340 343 343 338 341 344 346 346 346 347 347 346 346 344 341 338 338 337 337 336 335 333 331 328 325 323 321 319 318 318 318 319 308 308 322 323 333 336 334 331 330 329 329
341 341 342 341 339 336 339 340 342 343 343 343 342 341 339 337 335 334 333 331 329 325 322 320 318 317 317 317 317 317 317 315 302 305 314 316 326 326 327 326 325 325 324
337 340 339 339 337 336 336 332 335 337 337 336 333 330 328 327 327 326 324 325 322 320 317 316 316 317 317 316 316 315 312 310 301 306 310 315 322 323 323 323 323 323 323
334 337 338 336 334 333 332 327 328 329 328 326 325 322 317 313 312 314 318 319 317 316 315 316 315 314 311 311 312 311 308 301 302 304 309 318 318 320 321 321 322 322 322
331 332 335 333 330 330 329 328 325 325 325 322 318 312 311 308 307 308 311 314 314 314 315 314 313 310 305 300 300 304 300 300 300 301 307 315 316 318 319 320 321 321 321
330 330 330 330 328 327 325 324 323 322 320 317 312 309 307 305 304 303 302 301 300 304 300 301 300 300 300 299 299 299 299 299 298 300 308 312 313 317 318 319 320 320 320
327 328 328 328 327 326 326 324 322 319 314 312 311 307 305 303 303 302 301 299 299 298 297 297 297 298 299 300 299 299 299 298 298 300 302 313 312 315 318 319 320 320 320
326 327 326 326 326 325 323 320 320 317 312 311 309 307 306 305 302 301 299 298 297 297 296 296 296 297 297 299 299 298 298 298 298 299 299 312 314 316 317 318 319 318 318
327 326 326 325 325 323 322 319 317 314 312 309 308 309 307 305 302 300 298 298 297 297 296 296 295 295 295 297 297 297 297 298 299 299 301 305 311 312 313 315 316 316 317
326 325 323 323 323 322 320 318 315 314 311 310 308 308 307 304 303 300 298 297 296 296 296 295 295 295 295 296 295 296 297 298 298 301 301 300 300 307 308 310 311 312 314
322 323 323 324 321 320 319 316 315 314 311 309 306 306 305 303 301 298 298 296 296 295 295 294 293 293 293 293 293 292 295 298 299 300 299 298 297 297 302 305 306 309 311
321 322 320 321 319 318 317 314 314 313 308 305 303 302 302 302 301 298 297 296 296 295 294 294 293 293 292 292 293 293 295 296 297 298 296 296 296 295 295 301 302 304 306
321 321 319 318 317 318 312 312 309 308 308 304 302 301 301 300 299 297 295 295 295 294 292 292 292 292 292 291 294 294 295 295 295 294 294 295 295 294 294 294 294 295 302
316 316 317 315 314 313 308 306 305 303 305 301 301 301 300 299 298 296 294 294 294 293 291 292 292 291 290 290 292 293 293 294 293 293 293 292 293 293 293 293 292 292 293
310 314 315 314 313 311 309 308 310 306 305 304 301 300 299 298 298 296 294 293 293 291 291 291 291 290 290 290 289 290 289 292 291 293 292 292 290 291 292 293 292 292 291
292 301 312 312 310 309 306 307 304 303 301 300 297 297 298 298 297 296 294 293 292 291 290 290 290 290 289 289 289 290 286 287 287 290 290 289 290 289 290 291 291 292 291
290 293 307 309 307 306 305 304 302 303 300 301 301 297 297 297 295 295 294 292 291 291 290 290 291 289 289 288 288 290 288 288 286 284 287 287 289 289 288 289 289 290 290
293 292 300 307 305 304 304 304 302 302 302 302 300 296 296 295 294 294 293 292 291 291 290 290 289 289 289 288 288 287 286 286 285 284 280 284 285 286 288 289 289 289 290
293 293 293 301 303 301 303 302 301 300 298 297 297 295 293 293 292 292 292 291 291 290 289 289 289 289 288 288 288 287 286 285 284 283 281 281 281 284 286 288 288 288 290
Wind_Speed
4 10 15 15 14 15 14 13 11 11 11 11 13 14 14 14 13 12 11 11 11 11 11 11 11 11 10 10 9 9 8 8 8 8 8 8 7 9 10 10 9 6 12
10 10 14 16 15 14 14 13 12 13 14 15 16 16 15 15 14 13 11 10 11 11 12 11 9 9 9 8 8 8 7 7 7 7 7 6 4 6 8 9 9 9 12
13 11 10 15 15 14 14 13 13 14 15 17 16 16 16 16 15 15 13 12 11 13 13 12 11 11 9 8 8 8 8 8 8 10 10 5 4 4 8 10 12 13 12
13 10 10 10 15 16 14 14 14 14 15 16 17 17 16 15 16 15 14 12 13 14 14 12 12 11 11 10 9 9 8 9 10 10 6 6 1 5 9 10 11 12 12
12 10 10 11 14 15 14 14 14 15 15 16 16 16 16 15 15 14 14 13 12 12 12 11 10 10 9 9 9 9 10 10 10 8 6 5 4 6 11 11 10 10 9
10 10 12 12 14 15 13 14 15 15 16 16 16 16 16 15 14 13 13 11 11 11 10 10 10 9 9 10 10 10 11 12 9 6 6 6 4 7 9 10 11 11 10
9 9 11 12 13 14 14 14 15 15 15 16 16 15 16 15 14 13 13 12 11 10 10 10 10 9 9 10 10 11 11 12 7 6 6 7 7 9 12 15 15 15 17
13 11 10 10 11 11 13 14 13 14 16 16 16 15 14 13 13 13 13 13 12 11 10 10 9 9 9 10 11 12 12 10 7 6 7 6 11 15 15 15 16 17 17
10 12 8 8 9 9 10 11 11 13 15 14 14 15 13 13 13 12 12 12 12 11 10 10 9 8 8 10 12 13 12 13 7 5 6 4 12 14 15 15 16 15 14
5 10 10 7 6 6 6 10 12 14 14 14 16 15 14 13 12 12 11 11 11 10 10 10 10 10 10 9 12 12 13 12 7 6 4 5 13 13 14 14 14 13 13
3 7 8 9 7 6 6 8 12 13 14 14 12 14 10 5 6 7 9 10 11 11 10 11 11 11 10 10 11 12 11 4 5 4 3 12 13 13 12 12 12 12 12
8 5 6 9 8 8 6 7 6 7 5 6 7 6 5 6 5 6 7 9 8 9 10 10 10 10 8 4 4 8 4 5 4 4 3 12 11 11 11 11 11 11 11
10 7 6 9 8 9 7 5 3 2 3 5 7 5 5 5 4 3 3 3 3 7 4 5 5 4 5 4 4 4 4 5 3 3 6 11 10 10 10 9 10 10 10
12 12 10 11 10 8 6 7 7 4 3 5 4 6 5 4 4 4 3 3 3 2 4 4 3 3 5 5 5 5 5 4 3 3 5 9 9 9 9 11 10 12 12
10 11 12 11 11 9 6 4 6 6 5 6 5 6 5 4 5 4 4 4 3 2 3 3 3 3 4 4 4 5 5 5 5 3 3 9 9 11 11 12 12 13 12
10 11 11 11 11 11 8 8 5 5 7 5 4 4 5 4 6 5 4 4 3 3 2 3 3 3 3 3 4 5 4 4 4 5 4 5 12 12 14 12 14 13 13
12 12 13 11 9 11 10 8 6 6 6 6 5 7 6 5 6 6 4 4 3 3 4 3 3 3 4 3 5 5 4 4 5 5 4 4 6 14 14 14 14 13 13
10 14 12 10 11 11 10 7 5 5 5 5 5 4 9 7 7 6 5 4 4 3 3 3 2 3 3 4 3 3 3 4 5 5 5 4 5 4 9 14 15 14 15
13 13 13 12 13 12 10 7 7 6 5 4 3 2 4 7 7 6 4 4 5 3 3 2 2 2 2 3 3 3 3 4 4 5 6 6 6 5 4 12 14 15 15
13 14 13 11 12 10 7 7 4 6 5 6 5 4 5 5 6 6 4 5 4 4 3 2 2 3 2 2 3 4 3 3 4 4 5 5 5 6 5 6 5 7 16
7 10 14 13 13 10 8 8 6 7 4 3 5 7 6 5 6 6 4 5 4 5 4 3 2 3 2 1 4 3 4 4 5 4 4 4 6 5 6 5 4 4 6
5 7 12 14 14 11 8 6 3 5 2 1 2 4 6 6 6 6 6 5 5 5 5 3 3 2 2 1 3 2 2 2 3 3 3 4 6 4 4 5 6 7 6
12 8 6 11 13 11 10 8 6 5 3 3 2 3 4 6 7 6 6 5 5 4 4 4 3 4 4 1 3 3 3 4 3 2 4 4 5 4 4 4 5 6 5
14 12 6 6 9 10 13 11 13 11 6 3 5 3 3 5 6 6 6 6 5 4 5 4 3 2 3 4 1 2 3 3 4 2 1 2 4 4 3 3 5 5 5
14 14 10 6 6 6 13 12 11 9 6 4 4 6 4 3 5 6 6 6 5 4 4 5 4 3 2 3 3 2 1 3 3 3 3 1 2 2 2 3 4 3 4
15 16 15 10 3 6 9 10 13 12 9 8 7 6 4 3 3 5 5 5 5 5 5 4 4 4 3 3 2 2 3 3 2 3 4 1 2 2 1 2 3 3 5
Wind_Direction
162 154 152 148 147 141 134 129 117 110 110 119 123 116 111 106 101 98 100 106 108 108 114 114 115 111 109 107 101 90 75 58 42 33 20 15 30 41 47 46 37 23 29
139 156 153 145 147 141 134 129 121 115 110 111 116 116 115 110 106 103 103 104 107 111 114 110 114 117 111 105 91 80 69 44 20 19 7 1 29 47 55 54 43 32 28
145 150 150 145 145 138 132 129 125 121 117 116 116 115 114 111 110 109 105 103 111 108 106 102 93 93 90 84 78 64 47 29 9 6 359 349 129 90 64 55 49 38 30
141 147 145 143 139 138 136 133 128 125 122 121 120 117 115 116 114 107 104 105 103 98 91 91 89 89 79 73 65 54 39 22 9 7 2 348 159 122 77 55 42 36 28
141 146 144 140 142 140 138 135 133 129 127 122 121 122 119 116 114 107 101 94 96 97 92 92 92 88 78 67 53 40 29 18 9 10 0 1 355 52 58 52 41 33 23
144 146 148 145 144 137 140 136 136 127 125 126 126 124 123 119 112 110 106 99 104 101 96 93 87 81 67 57 47 34 23 13 10 7 357 357 34 57 50 50 41 25 11
144 152 151 145 146 143 143 138 133 132 133 130 127 125 122 120 118 117 115 111 109 104 98 89 83 76 65 52 39 27 18 12 14 10 6 24 6 40 45 36 31 27 16
146 151 148 143 141 148 146 144 144 145 138 131 131 124 124 123 122 121 118 117 112 103 91 82 70 63 56 48 38 26 22 24 27 22 36 23 18 40 37 29 21 18 10
145 139 142 144 144 142 139 138 135 133 131 131 128 118 115 118 123 119 114 111 105 99 90 78 67 57 55 49 38 34 41 39 42 33 36 13 27 30 28 24 18 12 2
141 143 149 138 137 133 136 124 122 120 116 111 104 102 95 92 95 92 89 103 101 93 82 77 70 59 55 48 41 41 40 37 38 44 29 24 31 27 23 19 16 12 5
117 132 133 136 123 116 117 121 113 117 119 106 104 108 99 100 94 91 95 98 96 84 75 67 66 55 54 43 41 41 43 37 41 36 19 29 30 27 23 22 18 16 13
153 126 132 132 133 125 125 125 117 130 125 114 118 119 114 114 115 107 101 86 89 69 71 68 59 52 50 41 29 37 38 39 41 30 21 37 34 29 28 27 25 22 19
159 143 154 146 144 141 140 131 122 113 129 125 138 133 131 120 109 107 93 75 73 71 56 56 47 38 42 41 37 39 41 42 38 40 25 38 35 38 36 35 33 30 30
168 160 161 159 159 160 160 161 154 152 146 137 150 139 137 137 131 130 121 109 92 85 86 73 60 53 48 44 49 48 46 47 40 35 20 33 48 47 46 43 45 43 37
170 170 174 177 163 156 163 154 159 163 157 154 160 166 148 158 140 135 129 116 109 99 100 90 79 62 51 40 42 55 47 50 51 39 31 44 59 53 51 49 50 39 36
189 179 173 181 172 153 169 169 168 156 151 148 156 164 141 171 137 134 133 126 121 110 109 107 99 80 67 60 49 47 50 57 58 61 58 38 62 53 46 40 45 35 34
199 180 183 176 166 164 168 173 156 163 151 167 170 154 162 176 141 136 138 144 140 116 113 92 73 68 62 53 50 37 51 63 77 79 69 54 47 47 51 47 41 33 30
181 191 182 178 173 176 170 166 162 165 162 171 164 180 164 158 144 134 136 155 132 120 112 96 89 71 66 62 47 29 51 73 87 79 67 63 55 42 38 48 42 37 34
188 185 183 180 185 180 167 161 163 172 161 129 137 148 184 141 140 136 143 148 133 122 101 126 74 101 77 55 73 63 60 72 87 78 71 63 56 48 35 41 42 34 34
190 187 180 178 178 184 151 142 128 153 177 172 155 159 156 137 140 135 136 140 135 125 121 102 108 69 117 91 81 75 56 69 84 75 72 68 56 47 43 40 33 26 33
163 176 182 172 173 163 159 157 170 174 182 163 167 160 156 148 145 139 145 143 145 146 158 149 122 116 53 82 108 51 35 52 72 77 73 65 53 38 44 45 45 38 22
323 200 184 180 173 176 169 160 150 151 134 148 144 164 156 156 146 152 154 159 156 137 139 138 143 130 112 34 128 111 146 354 32 50 62 68 58 34 33 50 52 45 30
8 335 233 184 179 171 152 128 109 87 94 157 172 159 175 163 155 154 159 154 157 151 154 160 152 157 147 34 66 155 133 193 136 10 42 52 59 44 27 47 42 42 29
346 336 252 213 191 166 159 161 165 179 181 202 176 134 177 166 161 152 159 159 164 155 152 159 163 157 136 154 86 36 45 139 157 148 0 35 49 39 35 45 35 35 15
5 353 336 188 192 176 172 179 176 180 168 146 148 157 169 170 169 155 162 159 164 159 155 157 154 156 147 142 156 164 78 53 63 129 167 211 19 340 25 79 44 29 11
9 9 4 353 195 167 190 184 186 184 151 148 165 173 175 178 180 175 171 162 165 156 161 163 148 147 146 131 141 151 167 156 179 136 112 121 171 294 346 69 46 354 29